Tracking 19562 objects as of 25-Mar-2019
HD Live streaming from Space Station
objects crossing your sky now

INTELSAT 2 (PAS 2)

Track INTELSAT 2 (PAS 2) now!
INTELSAT 2 (PAS 2) is classified as:


NORAD ID: 23175
Int'l Code: 1994-040A
Perigee: 36,063.2 km
Apogee: 36,135.7 km
Inclination: 7.8 °
Period: 1,451.7 minutes
Semi major axis: 42470 km
RCS: 6.3096 m2 (large)
Launch date: July 8, 1994
Source: United States (US)
Launch site: FRENCH GUIANA (FRGUI)

12 Ku-band; Asia-Pacific.
aabbcc
Your satellite tracking list
Your tracking list is empty




NASA's NSSDC Master Catalog

Two Line Element Set (TLE):
1 23175U 94040A   19083.83315575 -.00000131 +00000-0 +00000-0 0  9999
2 23175 007.7751 052.0294 0008532 315.9973 214.4617 00.99191070089440
Source of the keplerian elements: AFSPC